一网星座-0443星 (ONEWEB-0443 )

导读 | 豆包AI

ONEWEB-0443是英国OneWeb星座组网的低轨通信卫星,于2022年2月10日发射入轨,属于OneWeb一代卫星群的组成部分。OneWeb星座旨在依托近地轨道卫星群,为全球提供高速宽带互联网接入服务,尤其覆盖偏远地区、海上和航空等网络盲区。该卫星重量约147千克,运行于近千公里高度的低轨轨道,采用Ku波段通信技术,助力OneWeb完成全球网络服务的初步组网部署,推动全球卫星互联网的普及应用。

基本信息
目录编号:
51637
目录名称:
ONEWEB-0443
国际标识:
2022-012R
轨道中心:
EARTH
卫星名称:
一网星座-0443星
卫星全名:
一网星座-0443星 (ONEWEB-0443 )
卫星状态:
在轨 (已飞行1540 天)
发射日期:
2022-02-10 UTC
国别 :
英国 (GB)
星等 :
--
轨道信息
数据来源 国际轨道数据
星历时间: 2026-04-30T11:45:16+0800
5小时前
查看轨道信息
半长轴: 7571.852km
偏心率: 0.0002111
轨道倾角: 87.918°
近地点辐角 84.756°
升交点赤经 15.425°
平近点角 275.382°
近地点: 1192.116km
远地点: 1195.314km
周期: 109.286分钟
每日圈数: 13.176488
详细信息
平衡模式:
三轴稳定
覆盖范围:
全球
运营商:
一网卫星公司
运营商所在国:
英国
制造商(研发单位):
一网卫星公司
制造商所在国:
英国
使用方式:
暂无
卫星简介
OneWeb卫星网络由648颗重约125公斤的微型卫星组成,运行在1200公里的轨道上。 每颗卫星都能够提供至少每秒8千兆位的吞吐量,以使用其高吞吐量的Ku频段有效载荷为家庭和移动平台提供互联网接入。该卫星仍在工作。
2D轨道图
3D轨道图
轨道高度分析图
轨道倾角分析图
轨道综合分析图
查看轨道综合分析图